EW7230 Weather Reports


time (UTC)temp
C
wind
direction
speed
KPH
gust
KPH
rain 1hr
cm
rain 24hr
cm
rain mn
cm
humidity
%
barometer
mb
20260506002007 0 34 0.0 0.0 0.00 0.00 0.00 68 1010.2
20260506001506 0 34 0.0 0.0 0.00 0.00 0.00 67 1010.2
20260506001006 0 34 0.0 0.0 0.00 0.00 0.00 67 1010.2
20260506000504 0 34 0.0 0.0 0.00 0.00 0.00 68 1010.2
20260506000004 0 44 0.0 0.0 0.00 0.00 0.00 69 1010.2
20260505235503 0 44 0.0 0.0 0.00 0.00 0.00 71 1010.2
20260505235003 0 44 0.0 0.0 0.00 0.00 0.00 70 1010.2
20260505234503 0 44 0.0 0.0 0.00 0.00 0.00 70 1010.2
20260505234002 0 44 0.0 0.0 0.00 0.00 0.00 68 1010.2
20260505233559 0 44 0.0 0.0 0.00 0.00 0.00 67 1010.2
20260505233059 0 44 0.0 0.0 0.00 0.00 0.00 67 1010.1
20260505232559 0 44 0.0 0.0 0.00 0.00 0.00 67 1010.1
20260505232059 0 44 0.0 0.0 0.00 0.00 0.00 66 1010.0
20260505231558 0 44 0.0 0.0 0.00 0.00 0.00 66 1010.1
20260505231057 0 44 0.0 0.0 0.00 0.00 0.00 66 1010.1
20260505230557 1 44 0.0 1.6 0.00 0.00 0.00 66 1010.0
20260505230121 1 44 0.0 1.6 0.00 0.00 0.00 66 1010.0
20260505225557 0 44 0.0 0.0 0.00 0.00 0.00 66 1010.1
20260505225159 0 44 0.0 0.0 0.00 0.00 0.00 66 1010.1
20260505224556 0 44 0.0 0.0 0.00 0.00 0.00 66 1010.0
20260505224055 0 44 0.0 0.0 0.00 0.00 0.00 67 1010.0
20260505223556 0 44 0.0 0.0 0.00 0.00 0.00 67 1010.1
20260505223057 0 44 0.0 0.0 0.00 0.00 0.00 67 1010.1
20260505222556 0 44 0.0 0.0 0.00 0.00 0.00 67 1010.1
20260505222054 0 44 0.0 0.0 0.00 0.00 0.00 67 1010.1
20260505221557 0 44 0.0 0.0 0.00 0.00 0.00 68 1010.1
20260505221050 1 44 0.0 0.0 0.00 0.00 0.00 66 1010.0
20260505220549 1 44 0.0 0.0 0.00 0.00 0.00 66 1010.0
20260505220048 1 44 0.0 0.0 0.00 0.00 0.00 64 1010.0
20260505215534 1 44 0.0 0.0 0.00 0.00 0.00 64 1009.9
20260505215030 1 44 0.0 0.0 0.00 0.00 0.00 63 1009.8
20260505214535 2 44 0.0 0.0 0.00 0.00 0.00 61 1009.9
20260505214032 2 44 0.0 0.0 0.00 0.00 0.00 60 1009.8
20260505213529 2 44 0.0 0.0 0.00 0.00 0.00 59 1009.8
20260505213033 2 44 0.0 8.0 0.00 0.00 0.00 59 1009.7
20260505212529 2 45 0.0 8.0 0.00 0.00 0.00 57 1009.8
20260505212030 2 40 0.0 0.0 0.00 0.00 0.00 58 1009.8
20260505211528 2 40 0.0 1.6 0.00 0.00 0.00 57 1009.7
20260505211028 2 40 0.0 1.6 0.00 0.00 0.00 57 1009.6
20260505210528 2 30 0.0 0.0 0.00 0.00 0.00 56 1009.6
20260505210025 3 46 0.0 0.0 0.00 0.00 0.00 54 1009.6
20260505205526 3 46 0.0 0.0 0.00 0.00 0.00 54 1009.6
20260505205026 3 46 0.0 0.0 0.00 0.00 0.00 54 1009.6
20260505204526 3 46 0.0 0.0 0.00 0.00 0.00 54 1009.5
20260505204023 3 46 0.0 0.0 0.00 0.00 0.00 51 1009.3
20260505203523 3 46 0.0 0.0 0.00 0.00 0.00 51 1009.2
20260505203023 3 355 0.0 0.0 0.00 0.00 0.00 51 1009.2
20260505202524 3 351 0.0 0.0 0.00 0.00 0.00 51 1009.1
20260505202024 3 360 0.0 0.0 0.00 0.00 0.00 52 1009.1
20260505201523 3 19 0.0 0.0 0.00 0.00 0.00 53 1009.2
20260505201023 3 20 0.0 0.0 0.00 0.00 0.00 55 1009.1
20260505200521 3 61 0.0 0.0 0.00 0.00 0.00 54 1009.1
20260505200033 3 9 0.0 0.0 0.00 0.00 0.00 53 1009.1
20260505195519 4 9 0.0 0.0 0.00 0.00 0.00 51 1009.0
20260505195119 5 9 0.0 0.0 0.00 0.00 0.00 49 1008.9
20260505194519 5 9 0.0 0.0 0.00 0.00 0.00 48 1008.9
20260505194018 5 9 0.0 0.0 0.00 0.00 0.00 46 1008.8
20260505193518 6 9 0.0 0.0 0.00 0.00 0.00 44 1008.8
20260505193017 6 9 0.0 0.0 0.00 0.00 0.00 43 1008.7
20260505192516 6 319 0.0 6.4 0.00 0.00 0.00 43 1008.6
20260505192015 6 344 0.0 6.4 0.00 0.00 0.00 42 1008.5
20260505191524 6 17 0.0 1.6 0.00 0.00 0.00 43 1008.5
20260505191014 6 344 0.0 1.6 0.00 0.00 0.00 42 1008.3
20260505190518 6 331 0.0 0.0 0.00 0.00 0.00 41 1008.2
20260505190012 6 329 0.0 4.8 0.00 0.00 0.00 41 1008.2
20260505185512 7 336 0.0 6.4 0.00 0.00 0.00 40 1008.2
20260505185012 7 325 0.0 17.7 0.00 0.00 0.00 39 1008.1
20260505184511 7 335 0.0 17.7 0.00 0.00 0.00 39 1008.2
20260505184010 7 325 0.0 3.2 0.00 0.00 0.00 38 1008.1
20260505183511 7 260 0.0 16.1 0.00 0.00 0.00 36 1008.0
20260505183012 7 312 0.0 16.1 0.00 0.00 0.00 37 1008.0
20260505182511 7 334 0.0 3.2 0.00 0.00 0.00 38 1008.0
20260505182010 7 329 0.0 3.2 0.00 0.00 0.00 39 1007.9
20260505181509 8 346 0.0 0.0 0.00 0.00 0.00 41 1007.9
20260505181008 8 324 0.0 1.6 0.00 0.00 0.00 39 1007.9
20260505180508 8 349 0.0 9.7 0.00 0.00 0.00 40 1007.8
20260505180008 8 337 0.0 9.7 0.00 0.00 0.00 40 1007.7
20260505175510 8 324 0.0 12.9 0.00 0.00 0.00 41 1007.7
20260505175008 8 355 0.0 12.9 0.00 0.00 0.00 39 1007.6
20260505174507 8 278 0.0 0.0 0.00 0.00 0.00 39 1007.6
20260505174010 8 300 0.0 3.2 0.00 0.00 0.00 39 1007.6
20260505173510 8 304 0.0 3.2 0.00 0.00 0.00 37 1007.5
20260505173011 8 299 0.0 1.6 0.00 0.00 0.00 37 1007.5
20260505172507 9 290 0.0 0.0 0.00 0.00 0.00 38 1007.4
20260505172007 9 340 0.0 0.0 0.00 0.00 0.00 38 1007.4
20260505171508 9 270 0.0 1.6 0.00 0.00 0.00 39 1007.4
20260505171007 9 263 0.0 1.6 0.00 0.00 0.00 39 1007.2
20260505170505 9 259 0.0 0.0 0.00 0.00 0.00 39 1007.3
20260505170006 9 259 0.0 0.0 0.00 0.00 0.00 37 1007.3
20260505165505 10 245 0.0 0.0 0.00 0.00 0.00 37 1007.3
20260505165005 10 309 0.0 1.6 0.00 0.00 0.00 37 1007.3
20260505164505 10 250 0.0 1.6 0.00 0.00 0.00 36 1007.3
20260505164004 10 263 0.0 1.6 0.00 0.00 0.00 35 1007.3
20260505163603 11 299 0.0 1.6 0.00 0.00 0.00 34 1007.4
20260505163007 11 277 0.0 1.6 0.00 0.00 0.00 34 1007.4
20260505162503 11 223 0.0 1.6 0.00 0.00 0.00 34 1007.4
20260505162007 11 209 0.0 3.2 0.00 0.00 0.00 33 1007.4
20260505161509 11 268 0.0 4.8 0.00 0.00 0.00 31 1007.3
20260505161002 11 289 0.0 3.2 0.00 0.00 0.00 32 1007.3
20260505160503 11 271 0.0 3.2 0.00 0.00 0.00 31 1007.3
20260505153100 10 238 0.0 1.6 0.00 0.00 0.00 31 1007.1
20260505152601 10 347 0.0 0.0 0.00 0.00 0.00 30 1007.1
20260505152059 10 5 0.0 0.0 0.00 0.00 0.00 30 1007.0
20260505151658 10 313 0.0 0.0 0.00 0.00 0.00 29 1007.0
20260505151057 11 271 0.0 0.0 0.00 0.00 0.00 29 1007.1
20260505150557 10 283 0.0 0.0 0.00 0.00 0.00 31 1007.0
20260505150107 10 320 0.0 1.6 0.00 0.00 0.00 33 1007.0
20260505140550 10 321 0.0 8.0 0.00 0.00 0.00 31 1007.0
20260505124551 11 310 0.0 4.8 0.00 0.00 0.00 24 1007.3
20260505124045 10 271 0.0 0.0 0.00 0.00 0.00 27 1007.3
20260505123546 10 22 0.0 22.5 0.00 0.00 0.00 25 1007.4
20260505123045 10 338 3.2 22.5 0.00 0.00 0.00 25 1007.6
20260505122548 10 324 0.0 24.1 0.00 0.00 0.00 27 1007.5
20260505122045 11 336 3.2 24.1 0.00 0.00 0.00 28 1007.5
20260505121545 10 222 0.0 12.9 0.00 0.00 0.00 28 1007.5
20260505121044 11 292 0.0 12.9 0.00 0.00 0.00 28 1007.6
20260505120543 10 257 0.0 0.0 0.00 0.00 0.00 29 1007.6
20260505120043 10 280 0.0 12.9 0.00 0.00 0.00 28 1007.5
20260505115543 10 348 1.6 12.9 0.00 0.00 0.00 28 1007.4
20260505115042 10 291 0.0 11.3 0.00 0.00 0.00 30 1007.4
20260505114541 10 269 0.0 17.7 0.00 0.00 0.00 29 1007.5
20260505114041 10 262 0.0 17.7 0.00 0.00 0.00 31 1007.5
20260505113538 10 349 0.0 11.3 0.00 0.00 0.00 27 1007.6
20260505113039 10 344 0.0 1.6 0.00 0.00 0.00 27 1007.6
20260505112540 10 248 0.0 9.7 0.00 0.00 0.00 30 1007.6
20260505112039 10 304 0.0 12.9 0.00 0.00 0.00 33 1007.6
20260505111536 10 332 1.6 12.9 0.00 0.00 0.00 30 1007.6
20260505111035 10 306 0.0 1.6 0.00 0.00 0.00 31 1007.6
20260505110535 10 287 0.0 4.8 0.00 0.00 0.00 31 1007.6
20260505102029 10 327 0.0 12.9 0.00 0.00 0.00 32 1007.7
20260505101533 9 290 0.0 12.9 0.00 0.00 0.00 34 1007.7
20260505101026 9 296 0.0 12.9 0.00 0.00 0.00 33 1007.7
20260505100526 10 214 0.0 8.0 0.00 0.00 0.00 33 1007.7
20260505100024 10 283 0.0 9.7 0.00 0.00 0.00 36 1007.7
20260505095522 9 320 0.0 11.3 0.00 0.00 0.00 37 1007.7
20260505095023 9 250 0.0 11.3 0.00 0.00 0.00 35 1007.7
20260505094521 9 243 0.0 12.9 0.00 0.00 0.00 34 1007.8
20260505094021 9 273 0.0 11.3 0.00 0.00 0.00 35 1007.8
20260505093519 9 298 0.0 1.6 0.00 0.00 0.00 37 1007.7
20260505093018 9 298 0.0 8.0 0.00 0.00 0.00 35 1007.8
20260505092517 8 195 1.6 8.0 0.00 0.00 0.00 38 1007.8
20260505092016 8 211 0.0 0.0 0.00 0.00 0.00 37 1007.8
20260505091514 8 312 0.0 0.0 0.00 0.00 0.00 36 1007.9
20260505091013 8 296 0.0 0.0 0.00 0.00 0.00 33 1008.0
20260505090512 8 291 0.0 0.0 0.00 0.00 0.00 38 1007.9
20260505090030 8 278 0.0 0.0 0.00 0.00 0.00 39 1008.0
20260505085512 8 279 0.0 0.0 0.00 0.00 0.00 34 1008.0
20260505085012 8 268 0.0 0.0 0.00 0.00 0.00 33 1008.0
20260505084511 8 238 0.0 0.0 0.00 0.00 0.00 36 1008.0
20260505084010 8 206 0.0 0.0 0.00 0.00 0.00 39 1008.0
20260505083509 8 218 0.0 0.0 0.00 0.00 0.00 37 1008.0
20260505083007 8 267 0.0 6.4 0.00 0.00 0.00 35 1008.0
20260505082510 8 274 0.0 4.8 0.00 0.00 0.00 39 1007.9
20260505082006 8 275 0.0 4.8 0.00 0.00 0.00 37 1007.9
20260505081506 8 247 0.0 4.8 0.00 0.00 0.00 41 1007.9
20260505081003 7 212 0.0 0.0 0.00 0.00 0.00 40 1007.9
20260505080501 7 240 0.0 3.2 0.00 0.00 0.00 40 1007.8
20260505080100 7 210 0.0 3.2 0.00 0.00 0.00 38 1007.9
20260505075558 7 285 0.0 9.7 0.00 0.00 0.00 38 1007.8
20260505075057 7 209 0.0 9.7 0.00 0.00 0.00 40 1007.9
20260505074557 7 360 0.0 24.1 0.00 0.00 0.00 42 1007.9
20260505074059 7 324 6.4 24.1 0.00 0.00 0.00 39 1008.0
20260505073555 7 341 3.2 9.7 0.00 0.00 0.00 39 1008.0
20260505073053 7 312 0.0 20.9 0.00 0.00 0.00 41 1007.9
20260505072554 6 211 3.2 20.9 0.00 0.00 0.00 40 1007.9
20260505072050 6 331 3.2 19.3 0.00 0.00 0.00 41 1007.9
20260505071551 6 338 0.0 0.0 0.00 0.00 0.00 43 1007.8
20260505071047 6 335 0.0 19.3 0.00 0.00 0.00 43 1007.8
20260505070546 6 349 0.0 19.3 0.00 0.00 0.00 42 1007.7
20260505070044 6 325 0.0 6.4 0.00 0.00 0.00 42 1007.7
20260505065544 6 340 0.0 11.3 0.00 0.00 0.00 44 1007.7
20260505065041 6 284 1.6 11.3 0.00 0.00 0.00 45 1007.7
20260505064543 6 323 0.0 0.0 0.00 0.00 0.00 49 1007.7
20260505064039 6 329 0.0 0.0 0.00 0.00 0.00 44 1007.7
20260505063537 6 343 0.0 0.0 0.00 0.00 0.00 48 1007.7
20260505063039 5 300 0.0 0.0 0.00 0.00 0.00 47 1007.7
20260505062536 5 238 0.0 0.0 0.00 0.00 0.00 51 1007.7
20260505062032 5 215 0.0 0.0 0.00 0.00 0.00 53 1007.7
20260505061534 4 5 0.0 0.0 0.00 0.00 0.00 55 1007.6
20260505061029 3 32 0.0 0.0 0.00 0.00 0.00 59 1007.7
20260505060528 3 5 0.0 0.0 0.00 0.00 0.00 59 1007.7
20260505060034 2 320 0.0 0.0 0.00 0.00 0.00 60 1007.7
20260505055525 1 19 0.0 0.0 0.00 0.00 0.00 60 1007.7
20260505055026 1 32 0.0 0.0 0.00 0.00 0.00 65 1007.8
20260505054524 1 32 0.0 0.0 0.00 0.00 0.00 64 1007.7
20260505054024 1 32 0.0 0.0 0.00 0.00 0.00 64 1007.8
20260505053523 1 32 0.0 0.0 0.00 0.00 0.00 64 1007.7
20260505053026 1 32 0.0 0.0 0.00 0.00 0.00 63 1007.7
20260505052522 1 32 0.0 0.0 0.00 0.00 0.00 62 1007.7
20260505052022 1 26 0.0 0.0 0.00 0.00 0.00 64 1007.7
20260505051522 1 90 0.0 0.0 0.00 0.00 0.00 65 1007.7
20260505051021 1 85 0.0 0.0 0.00 0.00 0.00 64 1007.8
20260505050519 0 329 0.0 0.0 0.00 0.00 0.00 65 1007.8
20260505041514 0 70 0.0 0.0 0.00 0.00 0.00 71 1007.5
20260505041013 0 70 0.0 0.0 0.00 0.00 0.00 70 1007.5
20260505040513 0 70 0.0 0.0 0.00 0.00 0.00 71 1007.5
20260505040012 0 70 0.0 0.0 0.00 0.00 0.00 71 1007.5
20260505035514 0 70 0.0 0.0 0.00 0.00 0.00 70 1007.4
20260505035017 0 70 0.0 0.0 0.00 0.00 0.00 69 1007.4
20260505034510 0 70 0.0 0.0 0.00 0.00 0.00 69 1007.4
20260505034009 0 70 0.0 0.0 0.00 0.00 0.00 68 1007.3
20260505033513 0 70 0.0 0.0 0.00 0.00 0.00 69 1007.3
20260505033008 0 75 0.0 0.0 0.00 0.00 0.00 70 1007.3
20260505032507 0 13 0.0 0.0 0.00 0.00 0.00 69 1007.3
20260505032006 0 5 0.0 0.0 0.00 0.00 0.00 69 1007.1
20260505031506 0 346 0.0 0.0 0.00 0.00 0.00 69 1007.2
20260505031003 0 322 0.0 0.0 0.00 0.00 0.00 67 1007.1
20260505030502 0 84 0.0 0.0 0.00 0.00 0.00 67 1007.1
20260505025600 0 84 0.0 0.0 0.00 0.00 0.00 66 1007.0
20260505025055 0 86 0.0 0.0 0.00 0.00 0.00 65 1007.1
20260505024555 0 86 0.0 0.0 0.00 0.00 0.00 66 1007.1
20260505024054 0 344 0.0 0.0 0.00 0.00 0.00 64 1007.0
20260505023552 1 344 0.0 0.0 0.00 0.00 0.00 63 1007.0
20260505023052 1 285 0.0 0.0 0.00 0.00 0.00 62 1007.0
20260505022552 1 285 0.0 0.0 0.00 0.00 0.00 60 1007.1
20260505022049 1 42 0.0 0.0 0.00 0.00 0.00 61 1007.0
20260505021549 2 348 0.0 0.0 0.00 0.00 0.00 57 1007.0
20260505021147 2 18 0.0 0.0 0.00 0.00 0.00 56 1007.0
20260505020550 2 56 0.0 0.0 0.00 0.00 0.00 56 1006.9
20260505020048 2 46 0.0 0.0 0.00 0.00 0.00 56 1006.9
20260505015545 2 46 0.0 0.0 0.00 0.00 0.00 54 1006.9
20260505015044 2 344 0.0 0.0 0.00 0.00 0.00 54 1006.9
20260505014600 3 331 0.0 0.0 0.00 0.00 0.00 52 1006.8
20260505014046 3 5 0.0 0.0 0.00 0.00 0.00 50 1006.8
20260505013541 3 9 0.0 16.1 0.00 0.00 0.00 50 1006.7
20260505013042 3 9 3.2 16.1 0.00 0.00 0.00 50 1006.7
20260505012540 3 5 4.8 16.1 0.00 0.00 0.00 49 1006.6
20260505012043 3 42 0.0 0.0 0.00 0.00 0.00 49 1006.5
20260505011548 3 12 0.0 19.3 0.00 0.00 0.00 50 1006.5
20260505011039 3 344 4.8 20.9 0.00 0.00 0.00 50 1006.4
20260505010540 2 336 0.0 1.6 0.00 0.00 0.00 52 1006.4
20260505010037 2 29 0.0 1.6 0.00 0.00 0.00 55 1006.5
20260505005535 2 33 0.0 0.0 0.00 0.00 0.00 55 1006.4
20260505005035 3 37 0.0 0.0 0.00 0.00 0.00 53 1006.4
20260505004535 3 38 0.0 0.0 0.00 0.00 0.00 52 1006.4
20260505004033 3 32 0.0 6.4 0.00 0.00 0.00 53 1006.4
20260505003535 3 37 0.0 6.4 0.00 0.00 0.00 53 1006.4
20260505003032 3 27 0.0 0.0 0.00 0.00 0.00 52 1006.4
20260505002533 3 355 0.0 0.0 0.00 0.00 0.00 52 1006.4